Location: Huppendorf
(49.9333°N, 11.1500°E)
Time: 15:07:54
(UTC+00:00)

STARLINK-1054 - Pass Details

Date: 27 February 2020
Orbit: 548 x 551 km, 53.0° (Epoch: 28 March)

Event Time Altitude Azimuth Distance (km) Brightness Sun altitude
Rises 19:08:12 0° 250° (WSW) 2,711 8.0 -22.3°
Reaches altitude 10° 19:10:25 10° 252° (WSW) 1,820 7.0 -22.7°
Enters shadow 19:14:30 82° 322° (NW) 560 3.6 -23.3°
